Location: Byszew
(52.1813°N, 19.2693°E)
Time: 00:30:31
(UTC+00:00)

Envisat - Pass Details

Date: 02 February 2022
Orbit: 764 x 765 km, 98.2° (Epoch: 22 May)

Event Time Altitude Azimuth Distance (km) Brightness Sun altitude
Rises 03:14:49 0° 18° (NNE) 3,244 6.6 -28.7°
Reaches altitude 10° 03:17:14 10° 24° (NNE) 2,314 5.8 -28.4°
Maximum altitude 03:22:09 47° 99° (E) 1,012 3.9 -27.6°
Drops below altitude 10° 03:27:02 10° 173° (S) 2,298 5.5 -26.9°
Sets 03:29:24 0° 179° (S) 3,220 6.2 -26.5°
